Location: Kawakawa
(35.3830°S, 174.0670°E)
Time: 09:12:16
(UTC+13:00)

Explorer 7 - Pass Details

Date: 20 December 2019
Orbit: 485 x 679 km, 50.3° (Epoch: 24 January)

Event Time Altitude Azimuth Distance (km) Brightness Sun altitude
Rises 00:19:04 0° 337° (NNW) 2,788 - -29.4°
Reaches altitude 10° 00:21:37 10° 348° (NNW) 1,859 - -29.6°
Maximum altitude 00:25:14 28° 48° (NE) 1,048 - -29.8°
Drops below altitude 10° 00:28:43 10° 107° (ESE) 1,780 - -29.9°
Exits shadow 00:31:01 - 118° (ESE) 2,616 10.5 -30.0°
Sets 00:31:06 0° 119° (ESE) 2,647 10.5 -30.0°
